Tracking 28790 objects as of 19-Apr-2024
HD Live streaming from Space Station
objects crossing your sky now

COSMOS 2251 DEB

Track COSMOS 2251 DEB now!
10-day predictions


NORAD ID: 35015
Int'l Code: 1993-036AGC
Perigee: 707.3 km
Apogee: 824.7 km
Inclination: 74.0 °
Period: 100.0 minutes
Semi major axis: 7136 km
RCS: 0.0091 m2 (small)
Launch date: June 16, 1993
Source: Commonwealth of Independent States (former USSR) (CIS)
Launch site: PLESETSK MISSILE AND SPACE COMPLEX (PKMTR)

Note: This is SATELLITE DEBRIS
Your satellite tracking list
Your tracking list is empty




NASA's NSSDC Master Catalog

Two Line Element Set (TLE):
1 35015U 93036AGC 24106.24026664  .00004495  00000-0  13825-2 0  9991
2 35015  73.9504 288.3947 0082195 292.5543 243.7460 14.39893156566877
Source of the keplerian elements: AFSPC